Weather History for KMSP - September, 2013

Change the Weather History Date:

Thursday, September 5, 2013

  Actual Average Record
Temperature  
Mean Temperature 73 °F 66 °F  
Max Temperature 82 °F 76 °F 98 °F (1922)
Min Temperature 64 °F 57 °F 36 °F (1962)
Degree Days  
Heating Degree Days 0 2  
Month to date heating degree days 3 9  
Since 1 July heating degree days 11 28  
Cooling Degree Days 8 4  
Month to date cooling degree days 22 20  
Year to date cooling degree days 871 701  
Growing Degree Days 23 (Base 50)    
Moisture  
Dew Point 59 °F    
Average Humidity 68    
Maximum Humidity 84    
Minimum Humidity 51    
Precipitation  
Precipitation 0.00 in 0.11 in 2.57 in (1946)
Month to date precipitation 0.00 0.55  
Year to date precipitation 26.44 22.72  
Snow  
Snow 0.00 in 0.00 in 0.00 in ()
Month to date snowfall 0.0 0.0  
Since 1 July snowfall T 0.0  
Since 1 September snowfall 0.0 0.0  
Snow Depth 0.00 in    
Sea Level Pressure  
Sea Level Pressure 30.17 in    
Wind  
Wind Speed 8 mph (ESE)    
Max Wind Speed 13 mph    
Max Gust Speed 17 mph    
Visibility 10 miles    
Events      
T = Trace of Precipitation, MM = Missing Value Source: NWS Daily Summary

Daily Weather History Graph

Daily Weather History Graph

Search for Another Location

Airport or City:

Trip Planner

Search our weather history database for the weather conditions in past years. The results will help you decide how hot, cold, wet, or windy it might be!

Date:

Astronomy

Sep. 05, 2013 Rise Set
Actual Time 6:40 AM CDT 7:42 PM CDT
Civil Twilight 6:10 AM CDT 8:11 PM CDT
Nautical Twilight 5:34 AM CDT 8:47 PM CDT
Astronomical Twilight 4:56 AM CDT 9:25 PM CDT
Moon 6:55 AM CDT (9/5) 7:29 PM CDT (9/5)
Length of Visible Light 14h 01m
Length of Day
13h 01m
New Moon, 0% of the Moon is Illuminated
Sep 5
New Moon
Sep 12
First Quarter
Sep 19
Full
Sep 26
Last Quarter
Oct 4
New

Hourly Weather History & Observations

Time (CDT) Temp. Heat Index Dew Point Humidity Pressure Visibility Wind Dir Wind Speed Gust Speed Precip Events Conditions
12:53 AM 69.1 °F - 54.0 °F 58% 30.16 in 10.0 mi East 5.8 mph - N/A   Mostly Cloudy
1:53 AM 68.0 °F - 54.0 °F 61% 30.17 in 10.0 mi ENE 6.9 mph - N/A   Mostly Cloudy
2:53 AM 66.9 °F - 55.0 °F 66% 30.17 in 10.0 mi ENE 6.9 mph - N/A   Scattered Clouds
3:53 AM 64.9 °F - 54.0 °F 68% 30.17 in 10.0 mi East 5.8 mph - N/A   Partly Cloudy
4:53 AM 64.9 °F - 52.0 °F 63% 30.18 in 10.0 mi East 6.9 mph - N/A   Mostly Cloudy
5:53 AM 64.0 °F - 53.1 °F 67% 30.19 in 10.0 mi ENE 9.2 mph - N/A   Mostly Cloudy
6:53 AM 64.0 °F - 52.0 °F 65% 30.21 in 10.0 mi ENE 5.8 mph - N/A   Mostly Cloudy
7:53 AM 64.9 °F - 52.0 °F 63% 30.22 in 10.0 mi ESE 5.8 mph - N/A   Scattered Clouds
8:53 AM 66.0 °F - 54.0 °F 65% 30.21 in 10.0 mi East 6.9 mph - N/A   Mostly Cloudy
9:53 AM 69.1 °F - 55.9 °F 63% 30.22 in 10.0 mi East 8.1 mph - N/A   Mostly Cloudy
10:53 AM 71.1 °F - 57.0 °F 61% 30.22 in 10.0 mi ESE 6.9 mph - N/A   Mostly Cloudy
11:53 AM 75.0 °F - 60.1 °F 60% 30.22 in 10.0 mi East 9.2 mph - N/A   Partly Cloudy
12:53 PM 77.0 °F - 61.0 °F 58% 30.21 in 10.0 mi Variable 3.5 mph - N/A   Partly Cloudy
1:53 PM 79.0 °F - 60.1 °F 52% 30.19 in 10.0 mi SE 8.1 mph - N/A   Partly Cloudy
2:53 PM 81.0 °F 81.7 °F 61.0 °F 50% 30.17 in 10.0 mi ESE 10.4 mph - N/A   Clear
3:53 PM 81.0 °F 81.7 °F 61.0 °F 50% 30.16 in 10.0 mi SE 9.2 mph - N/A   Partly Cloudy
4:53 PM 82.0 °F 83.1 °F 63.0 °F 52% 30.14 in 10.0 mi East 8.1 mph - N/A   Partly Cloudy
5:53 PM 82.0 °F 83.4 °F 64.0 °F 54% 30.13 in 10.0 mi ESE 11.5 mph 16.1 mph N/A   Partly Cloudy
6:53 PM 79.0 °F - 64.9 °F 62% 30.12 in 9.0 mi ESE 10.4 mph - N/A   Partly Cloudy
7:53 PM 78.1 °F - 64.9 °F 64% 30.12 in 9.0 mi SE 9.2 mph - N/A   Partly Cloudy
8:53 PM 75.0 °F - 64.9 °F 71% 30.13 in 10.0 mi ESE 8.1 mph - N/A   Clear
9:53 PM 73.9 °F - 64.9 °F 73% 30.12 in 9.0 mi SE 8.1 mph - N/A   Clear
10:53 PM 73.0 °F - 64.9 °F 76% 30.12 in 10.0 mi SE 5.8 mph - N/A   Clear
11:53 PM 72.0 °F - 66.0 °F 81% 30.10 in 9.0 mi SE 5.8 mph - N/A   Clear